Location: Ostrava
(49.8330°N, 18.2830°E)
Time: 10:09:27
(UTC+02:00)

NOAA 19 - Visible Passes

Search period start: 01 July 2016 00:00
Search period end: 11 July 2016 00:00
Orbit: 842 x 862 km, 99.0° (Epoch: 30 June)

Date Brightness Start Highest point End Pass type
(mag) Time Alt. Az. Time Alt. Az. Time Alt. Az.
01 Jul 5.8 03:38:18 10° NNE 03:43:43 56° E 03:49:05 10° S visible
02 Jul 6.1 03:27:00 10° NNE 03:32:17 46° E 03:37:31 10° S visible
03 Jul 6.4 03:15:44 10° NNE 03:20:49 37° E 03:25:51 10° SSE visible
04 Jul 6.7 03:04:30 10° NNE 03:09:20 31° E 03:14:07 10° SSE visible
05 Jul 7.0 02:53:21 10° NE 02:57:50 25° E 03:02:17 10° SSE visible
06 Jul 7.3 02:42:17 10° NE 02:46:19 21° E 02:50:19 10° SE visible
07 Jul 7.5 02:31:20 10° NE 02:34:46 17° E 02:38:11 10° SE visible
08 Jul 7.6 02:20:36 10° ENE 02:23:12 13° E 02:25:47 10° ESE visible
08 Jul 5.4 03:59:17 10° NNE 04:04:48 80° ESE 04:10:16 10° SSW visible
09 Jul 7.8 02:10:38 10° ENE 02:11:36 10° E 02:12:35 10° E visible
09 Jul 5.6 03:47:54 10° NNE 03:53:23 66° ESE 03:58:48 10° S visible
10 Jul 5.9 03:36:35 10° NNE 03:41:57 53° E 03:47:17 10° S visible
